Вернуться в каталог

STARLINK-2442

АктивенСвязьVLEO
NORAD 48106·PAYLOAD·🇺🇸 United States

Запущен Apr 7, 2021 с Cape Canaveral Space Force Station

Loading…

Ближайшие Пролёты (ближайшие 24 часа)

TLE

СвежийSource: CelesTrak SupGP

Эпоха: Sep 15, 2026, 02:41 UTC

1 48106C 21027Q   26258.11229167  .00134420  00000+0  43275-2 0  2587
2 48106  53.1584 351.1285 0001244  97.8250  64.1854 15.31599162    15

Отслеживайте STARLINK-2442 в реальном времени с AllMySat

Download on the App Store